Regional Weather Roundup
Issued by NWS Kansas City/Pleasant Hill, MO

Home | Current Version | Previous Version | Text Only | Print | Product List | Glossary On
Versions: 1 2 3 4 5 6 7 8 9 10 11 12 13 14 15 16 17 18 19 20 21 22 23 24 25 26 27 28 29 30 31 32 33 34 35 36 37 38 39 40 41 42 43 44 45 46 47 48
000
ASUS43 KEAX 241210
RWREAX

WEATHER ROUNDUP FOR EASTERN KANSAS AND NORTHWEST MISSOURI
NATIONAL WEATHER SERVICE KANSAS CITY/PLEASANT HILL MO
700 AM CDT TUE MAY 24 2016

KSZ040-057-103>105-MOZ028-029-037-043-241300-
...KANSAS CITY METROPOLITAN AREA...

CITY           SKY/WX    TMP DP  RH WIND       PRES   REMARKS
K.C. INTL      TSTM      63  60  90 S9        29.92F FOG
6HR MIN TEMP:  61; 6HR MAX TEMP:  63; 6HR PCP:  0.28;

K.C. DOWNTOWN  TSTM      64  62  93 E7        29.90F FOG
6HR MIN TEMP:  63; 6HR MAX TEMP:  66; 6HR PCP:  0.06;

LEES SUMMIT    TSTM      64  61  90 NW12      29.96R
6HR MIN TEMP:  63; 6HR MAX TEMP:  64; 6HR PCP:  0.08;

OLATHE - IXD   TSTM      62  62 100 CALM      29.94S
6HR MIN TEMP:  61; 6HR MAX TEMP:  64; 6HR PCP:  0.23;

OLATHE - OJC   TSTM      62  61  96 S5        29.94R FOG
6HR MIN TEMP:  60; 6HR MAX TEMP:  63; 6HR PCP:  0.26;

LAWRENCE       CLOUDY    62  60  93 SE8       29.91F

$$

MOZ001>008-011>017-020>025-030>033-038>040-044>046-053-054-241300-
...NORTHERN AND CENTRAL MISSOURI...

CITY           SKY/WX    TMP DP  RH WIND       PRES   REMARKS
ST. JOSEPH     LGT RAIN  63  61  93 SW6       29.93R
6HR MIN TEMP:  63; 6HR MAX TEMP:  66; 6HR PCP:  0.01;

MOSBY          CLOUDY    63  63 100 S3        29.94R
WARRENSBURG    CLOUDY    63  61  94 CALM      29.93S
WHITEMAN AFB   PTSUNNY   63  63 100 S8        29.93R
6HR MIN TEMP:  60; 6HR MAX TEMP:  64;

CLINTON        CLOUDY    63  63 100 SE3       29.94R
SEDALIA        PTSUNNY   64  61  90 SE7       29.96R
6HR MIN TEMP:  60; 6HR MAX TEMP:  65;

WARSAW         NOT AVBL
CHILLICOTHE      N/A     64  62  93 CALM      29.94S
6HR MIN TEMP:  62; 6HR MAX TEMP:  67;

KIRKSVILLE     MOSUNNY   63  60  90 S3        29.95S
6HR MIN TEMP:  58; 6HR MAX TEMP:  67;


$$

MOZ041-047>049-056>058-063>065-088>090-097-241300-
...EASTERN AND SOUTHERN MISSOURI...

CITY           SKY/WX    TMP DP  RH WIND       PRES   REMARKS
ST. LOUIS INTL CLOUDY    71  54  54 S7        30.00R
6HR MIN TEMP:  69; 6HR MAX TEMP:  71;

SPIRIT OF STL  PTSUNNY   69  56  62 S6        29.98R
COLUMBIA       SUNNY     63  60  90 S6        29.98R
JEFFERSON CITY MOSUNNY   63  59  87 E3        29.97R
ROLLA          CLOUDY    66  59  78 S7        29.98R
OSAGE BEACH      N/A    N/A N/A N/A MISG        N/A
SPRINGFIELD    MOSUNNY   64  61  90 S12       29.95S
BRANSON        PTSUNNY   63  63 100 CALM      29.99R FOG
JOPLIN         CLOUDY    68  64  87 S13       29.92F
WEST PLAINS    CLOUDY    63  58  83 SE3       30.01S

$$

IAZ060-094-KSZ022-034>040-054-083-096-NEZ052-066-093-241300-
...KANSAS...SOUTHEAST NEBRASKA AND IOWA...

CITY           SKY/WX    TMP DP  RH WIND       PRES   REMARKS
TOPEKA         MOCLDY    61  59  93 S3        29.91R
6HR MIN TEMP:  60; 6HR MAX TEMP:  65; 6HR PCP:  0.39;

MANHATTAN      CLOUDY    62  58  86 CALM      29.89S
EMPORIA        CLOUDY    61  58  90 E9        29.92F
CHANUTE        CLOUDY    67  63  87 CALM      29.91R
WICHITA        CLOUDY    69  66  90 NE8       29.90R
OMAHA          CLOUDY    63  60  90 SW3       29.90R
LINCOLN        CLOUDY    60  59  96 N5        29.89R
FALLS CITY     TSTM      66  57  72 VRB6      29.86F
LAMONI         CLOUDY    63  61  93 S9        29.90S
DES MOINES     CLOUDY    64  61  90 S5        29.87F FOG

$$




USA.gov is the U.S. government's official web portal to all federal, state and local government web resources and services.